Погода Винницы

Погода Винницы : погода сейчас, прогноз погоды и архив. Всё, что Вы хотите узнать о погоде Винницы!

Поиск расширенной информации на нашем сайте:

Другие новости

Новости СМИ2

Главная страница сайта

Новости сайта

03.07.2017

Напоминаем, что на нашем специализированном сайте Метеоцентр.Азия вы можете получить высокодетализированные автоматические прогнозы погоды по пунктам России, СНГ и мира в авиационном формате (включающие направление и скорость ветра, видимость, явления погоды, количество и форму облачности, нижнюю и верхнюю границу облачности).


Погода Винницы - сегодня

Время (UTC), дата Ветер
(°,м/с) 
Видим.   Явления Облачность Т
(°С)
Тd
(°С)
f(%) Тe
(°С)
Pmin
(гПа)
dP
(гПа)
Po
(мм)
O2
(г/м3)
Тmin Tmax R s Состояние
почвы
03 11.12.17 140 (ЮВ) 50000 м  {снег}  10/0 средняя 
[Ac As]
+0.3 -0.1 97 1003.8  -0.4  743  299  -0.3       
06 11.12.17 110 (В) 4500 м  снег [диам. отлож. мокр. снега 3 мм]  10/10 180 м 
[Frnb|Ns]
-0.1 -0.1 100 -1  1003.3  -0.4  742  299  -0.3    14  равномерный
мокрый или
старый снег
100% 
09 11.12.17 140 (ЮВ) 14000 м  слаб. снег  10/10 330 м 
[Frnb|Ns]
+0.4 +0.2 99 1003.8  0.5  743  299           
12 11.12.17 130 (ЮВ) 8000 м  снег  10/10 180 м 
[Frnb|Ns]
+0.5 +0.3 99 1004.4  0.6  743  299           
15 11.12.17 140 (ЮВ) 50000 м  {снег}  10/10 840 м 
[Sc]
+0.9 +0.4 96 -1  1005.3  0.9  744  299         
18 11.12.17 150 (ЮВ) 50000 м  {снег}  10/10 660 м 
[Sc]
+1 +0.3 95 1006  0.7  744  299    +1     
21 11.12.17 140 (ЮВ) 50000 м    10/10 360 м 
[St]
+0.8 +0.5 98 1007.6  1.5  745  299           
00 12.12.17 170 (Ю) 50000 м    10/10 300 м 
[St]
+0.8 +0.6 99 -1  1007.8  0.2  745  299           
03 12.12.17 180 (Ю) 50000 м    10/10 240 м 
[St]
+1 +0.4 96 -1  1008.9  1.2  746  300  +0.7         
06 12.12.17 170 (Ю) 40000 м    10/10 240 м 
[St]
+1.1 +0.3 94 1009.3  0.3  747  300  +0.7      12  равномерный
мокрый или
старый снег
100% 
09 12.12.17 180 (Ю) 5-10{10}  20000 м    10/10 480 м 
[St]
+1 -0.4 90 -2  1009  0.3  746  300           
12 12.12.17 160 (Ю) 5-11{13}  16000 м  снежные зёрна  10/10 360 м 
[St]
+0.6 -0.7 91 -2  1006.5  -2.4  745  299           
15 12.12.17 160 (Ю) 7-14{14}  50000 м  {снег}  10/10 420 м 
[St]
+0.4 -1.5 87 -3  1004.4  -2.1  743  299      0.0     
18 12.12.17 160 (Ю) 7-16{17}  50000 м  {снег}  10/10 420 м 
[St]
+0.6 -1.5 86 -3  999.1  -5.3  739  297    +1.1  0.0     
21 12.12.17 180 (Ю) 6-12{17}  12000 м  слаб. ливневой снег  10/10 240 м кучево-дожд. 
[Cb cap]
-0 -0.3 98 -3  996.8  -2.3  737  297           
00 13.12.17 190 (Ю) 5{13}  50000 м  в посл. час ливневой снег  10/10 420 м кучево-дожд. 
[Cb cap]
+0.7 +0.4 98 -2  995.5  -1.2  736  296           
03 13.12.17 190 (Ю) 6-12{13}  40000 м    10/10 180 м 
[St]
+1.8 +1.4 97 -1  993.9  -1.5  735  294  -0       
06 13.12.17 190 (Ю) 7-10{13}  50000 м    10/10 300 м 
[St]
+2.5 +1.8 95 -1  992.4  -1.4  734  293  -0    10  равномерный
мокрый или
старый снег
100% 
09 13.12.17 220 (ЮЗ) 7-11{15}  16000 м  слаб. ливневой дождь  10/10 360 м кучево-дожд. 
[Cb cap]
+1.9 +1.2 95 -2  993.5  735  294           
12 13.12.17 240 (ЮЗ) 4{12}  14000 м  слаб. ливневой снег  9/9 700 м кучево-дожд. 
[Cb cap]
-0.2 -0.9 95 -3  997.9  4.3  738  298           
15 13.12.17 240 (ЮЗ) 6-10{11}  50000 м  {ливн. осадки}  8/8 660 м кучево-дожд. 
[Cb cap]
-0.6 -2.4 88 -4  1001.5  3.4  741  299         
18 13.12.17 230 (ЮЗ) 5{11}  50000 м  {ливн. осадки}  9/9 660 м кучево-дожд. 
[Cb cap]
-0.5 -2.4 87 -4  1004.1  2.6  743  300    +2.8     
21 13.12.17 220 (ЮЗ) 6{11}  50000 м    9/9 720 м кучево-дожд. 
[Cb cap]
-0.9 -2.7 88 -5  1005.4  1.3  744  301           
00 14.12.17 220 (ЮЗ) 5-10{11}  50000 м    10/10 900 м 
[Sc]
-1 -2.6 89 -4  1006  0.6  744  301           
03 14.12.17 210 (ЮЗ) 3{10}  50000 м    10/10 660 м 
[Sc]
-0.5 -1.8 91 -2  1007  745  301  -1.8         
Время (UTC), дата Ветер
(°,м/с) 
Видим.   Явления Облачность Т
(°С)
Тd
(°С)
f(%) Тe
(°С)
Pmin
(гПа)
dP
(гПа)
Po
(мм)
O2
(г/м3)
Тmin Tmax R s Состояние
почвы

Для получения пояснительной информации подведите курсор к названию столбца.

ПОГОДА Винницы - архив

Всё, что Вы хотите узнать о погоде Винницы - удобно и подробно!

Выберите нужную дату (начиная с 1 января 2015* года) и нажмите кнопку "Найти".
Будут отображены архивные сводки погоды по пункту Винницы, начиная с указанной даты.


Отображать данные в формате CSV (для использования в таблицах Excel)


Внимание! Наш архив погоды предназначен исключительно для личного некоммерческого использования в познавательных целях. Если Вам необходимы официальные справки о состоянии погоды (для производственных, юридических, коммерческих и т.п. целей), обращайтесь в органы Росгидромета.

*Примечание: данная дата относится к архиву по метеостанциям СССР (Россия, СНГ, Балтия).
Архив по метеостанциям Зарубежной Европы и Азии (кроме Китая) хранится 10 дней, по другим регионам земного шара (Китай, Африка, Америка, Австралия, Океания) - 1 день.

Винницы - район местоположения метеостанции


Название, широта, долгота, высота метеостанции:
Винницы 60.6°ш. 34.8°д. 111 м над ур. моря [Российская Федерация]

Дополнительная информация

В oтличие oт бoльшинства пoгoдных сайтoв мы публикуем пoдрoбную метеoинфoрмацию в детальнoм прoфессиoнальнoм фoрмате.

Характеристики температуры и влажнoсти вoздуха измеряются на высoте 2 м в тени вдали oт зданий и деревьев.
Скoрoсть ветра измеряется на высoте 10 м (на урoвне рoста челoвека скoрoсть ветра ниже в 1.5-2 раза). Если метеoстанция нахoдится в гoрoде или в лесу, тo скoрoсть ветра занижена на 2-4 м/с пo сравнению с oткрытым местoм. Скoрoсть ветра над акватoриями крупных рек и oзёр, а также на вершинах хoлмoв на 2-5 м/с выше, чем в oбычных услoвиях.
Атмoсфернoе давление в разных тoчках местнoсти мoжет значительнo oтличаться oт давления на метеoстанции, в зависимoсти oт услoвий рельефа (при пoдъёме на 10 м давление пoнижается примернo на 1 мм рт.ст.).